• Join FlightAware (Why Join?)
  • Login
  • US Flag 
10:06AM EDT


 

Airport Tracker/Info


-or-


 

Live Flight TrackerFlight Track Log ✈ THY9 ✈ 04-May-2013 ✈ LTBA / IST - KLAX

Flight Track Log - Related Links

Times and Time Zones

All times are in EDT time to prevent confusion due to time zone crossing. See the THY9 flight status page for this flight to view local times or setup timezone preferences in your user account.

Time Position Orientation Groundspeed Altitude Reporting Facility
EDT Latitude Longitude Course Direction KTS MPH feet Rate Location/Type
06:08AM 41.0130 28.8080 358° North 197 227 1,200  Level FlightAware
06:08AM 41.0460 28.7960 345° North 212 244 2,400 1,740 Climbing FlightAware
06:09AM 41.0700 28.7760 328° Northwest 234 269 3,100 1,560 Climbing FlightAware
06:09AM 41.0920 28.7590 330° Northwest 251 289 3,600 1,920 Climbing FlightAware
06:09AM 41.1240 28.7330 329° Northwest 269 310 4,700 2,280 Climbing FlightAware
06:10AM 41.1520 28.7090 327° Northwest 274 315 5,700 2,400 Climbing FlightAware
06:10AM 41.1810 28.6840 327° Northwest 276 318 6,900 2,580 Climbing FlightAware
06:11AM 41.2120 28.6580 328° Northwest 288 331 8,100 2,460 Climbing FlightAware
06:11AM 41.2450 28.6310 328° Northwest 290 334 9,200 2,100 Climbing FlightAware
06:11AM 41.2540 28.6230 326° Northwest 291 335 9,500 1,920 Climbing FlightAware
06:12AM 41.3090 28.5770 328° Northwest 310 357 11,000 1,680 Climbing FlightAware
06:13AM 41.3670 28.5270 327° Northwest 350 403 12,100 1,260 Climbing FlightAware
06:14AM 41.4260 28.4780 328° Northwest 356 410 12,800 1,920 Climbing FlightAware
06:14AM 41.4800 28.4320 327° Northwest 380 437 14,500 2,220 Climbing FlightAware
06:15AM 41.5460 28.3750 327° Northwest 402 463 15,800 1,800 Climbing FlightAware
06:16AM 41.6160 28.3160 328° Northwest 405 466 17,200 1,920 Climbing FlightAware
06:16AM 41.6970 28.2470 328° Northwest 419 482 18,700 1,920 Climbing FlightAware
06:17AM 41.7540 28.1990 328° Northwest 423 487 19,800 1,620 Climbing FlightAware
06:18AM 41.8530 28.1120 327° Northwest 444 511 21,300 1,380 Climbing FlightAware
06:19AM 41.9320 28.0440 327° Northwest 459 528 22,300 1,560 Climbing FlightAware
06:20AM 42.0380 27.9560 328° Northwest 458 527 23,900 1,620 Climbing FlightAware
06:20AM 42.1140 27.9090 335° Northwest 468 539 24,900 1,380 Climbing FlightAware
06:21AM 42.2070 27.8600 339° North 483 556 25,900 1,260 Climbing FlightAware
06:22AM 42.3070 27.8060 338° Northwest 489 563 26,900 1,200 Climbing FlightAware
06:23AM 42.4070 27.7530 339° North 496 571 27,800 1,260 Climbing FlightAware
06:24AM 42.5580 27.6710 338° Northwest 501 577 29,400 1,200 Climbing FlightAware
06:25AM 42.6420 27.6260 338° Northwest 504 580 30,000 480 Climbing FlightAware
06:25AM 42.7040 27.5930 339° North 500 575 30,000  Level FlightAware
06:26AM 42.8540 27.5110 338° Northwest 499 574 30,000  Level FlightAware
06:27AM 42.9370 27.4660 338° Northwest 504 580 30,000  Level FlightAware
06:28AM 43.0380 27.4110 338° Northwest 505 581 30,000  Level FlightAware
06:28AM 43.1200 27.3650 338° Northwest 506 582 30,000  Level FlightAware
06:29AM 43.2270 27.3060 338° Northwest 504 580 30,000  Level FlightAware
06:30AM 43.3090 27.2610 338° Northwest 504 580 30,000  Level FlightAware
06:30AM 43.4000 27.2110 338° Northwest 504 580 30,000  Level FlightAware
06:31AM 43.4750 27.1690 338° Northwest 502 578 30,000  Level FlightAware
06:32AM 43.5810 27.1100 338° Northwest 503 579 30,000  Level FlightAware
06:32AM 43.6620 27.0640 338° Northwest 504 580 30,000  Level FlightAware
06:33AM 43.7620 27.0080 338° Northwest 506 582 30,000  Level FlightAware
06:34AM 43.8520 26.9570 338° Northwest 508 585 30,000  Level FlightAware
06:35AM 43.9550 26.8990 338° Northwest 509 586 30,000  Level FlightAware
06:35AM 44.0360 26.8530 338° Northwest 510 587 30,000  Level FlightAware
06:36AM 44.1320 26.8120 343° North 513 590 30,000  Level FlightAware
06:37AM 44.2110 26.7930 350° North 515 593 30,000  Level FlightAware
06:37AM 44.3310 26.7690 352° North 515 593 30,000  Level FlightAware
06:38AM 44.4300 26.7490 352° North 514 592 30,000  Level FlightAware
06:39AM 44.5310 26.7290 352° North 513 590 30,000  Level FlightAware
06:39AM 44.6110 26.7130 352° North 512 589 30,000  Level FlightAware
06:40AM 44.7150 26.6920 352° North 513 590 30,000  Level FlightAware
06:41AM 44.8350 26.6670 352° North 514 592 30,000  Level FlightAware
06:42AM 44.9220 26.6480 351° North 515 593 30,000  Level FlightAware
06:42AM 45.0310 26.6240 351° North 514 592 30,000  Level FlightAware
06:43AM 45.1260 26.6040 352° North 515 593 30,000  Level FlightAware
06:44AM 45.2220 26.5830 351° North 516 594 30,000  Level FlightAware
06:44AM 45.3010 26.5660 351° North 516 594 30,000  Level FlightAware
06:45AM 45.4210 26.5390 351° North 517 595 30,000  Level FlightAware
06:46AM 45.5430 26.5130 352° North 518 596 30,000  Level FlightAware
06:47AM 45.6380 26.4920 351° North 518 596 30,000  Level FlightAware
06:47AM 45.7480 26.4680 351° North 517 595 30,000  Level FlightAware
06:48AM 45.8390 26.4470 351° North 517 595 30,000  Level FlightAware
06:49AM 45.9540 26.4210 351° North 512 589 30,000 360 Level FlightAware
06:50AM 46.0460 26.4010 351° North 510 587 30,600 1,080 Climbing FlightAware
06:50AM 46.1310 26.3820 351° North 506 582 31,400 960 Climbing FlightAware
06:51AM 46.2370 26.3550 350° North 505 581 32,000 360 Climbing FlightAware
06:52AM 46.3350 26.3080 342° North 512 589 32,000  Level FlightAware
06:52AM 46.4320 26.2620 342° North 513 590 32,000  Level FlightAware
06:53AM 46.5130 26.2230 342° North 514 592 32,000  Level FlightAware
06:54AM 46.6350 26.1630 341° North 516 594 32,000  Level FlightAware
06:54AM 46.7270 26.1230 343° North 523 602 32,000  Level FlightAware
06:55AM 46.8200 26.1010 351° North 524 603 32,000  Level FlightAware
06:56AM 46.9560 26.0710 351° North 525 604 32,000  Level FlightAware
06:57AM 47.0610 26.0500 352° North 527 606 32,000  Level FlightAware
06:57AM 47.1590 26.0440 358° North 528 608 32,000  Level FlightAware
06:58AM 47.2690 26.0320 356° North 526 605 32,000  Level FlightAware
06:59AM 47.3670 26.0210 356° North 525 604 32,000  Level FlightAware
07:00AM 47.4740 26.0080 355° North 526 605 32,000  Level FlightAware
07:00AM 47.5720 25.9980 356° North 525 604 32,000  Level FlightAware
07:01AM 47.6790 25.9870 356° North 523 602 32,000  Level FlightAware
07:02AM 47.7780 25.9770 356° North 521 600 32,000  Level FlightAware
07:02AM 47.8740 25.9670 356° North 519 597 32,000  Level FlightAware
07:03AM 47.9790 25.9490 353° North 515 593 32,000  Level FlightAware
07:04AM 48.0730 25.9230 350° North 515 593 32,000  Level FlightAware
07:04AM 48.1650 25.8960 349° North 514 592 32,000  Level FlightAware
07:05AM 48.2720 25.8630 348° North 512 589 32,000  Level FlightAware
07:06AM 48.3660 25.8350 349° North 510 587 32,000  Level FlightAware
07:07AM 48.4570 25.8080 349° North 512 589 32,000  Level FlightAware
07:07AM 48.5640 25.7750 348° North 514 592 32,000  Level FlightAware
07:08AM 48.6550 25.7480 349° North 515 593 32,000  Level FlightAware
07:09AM 48.7590 25.7160 349° North 512 589 32,000  Level FlightAware
07:09AM 48.8480 25.6890 349° North 511 588 32,000  Level FlightAware
07:10AM 48.9440 25.6600 349° North 510 587 32,000  Level FlightAware
07:11AM 49.0490 25.6270 348° North 506 582 32,000  Level FlightAware
07:11AM 49.1410 25.5990 349° North 506 582 32,000  Level FlightAware
07:12AM 49.2400 25.5680 348° North 505 581 32,000  Level FlightAware
07:13AM 49.3330 25.5390 349° North 504 580 32,000  Level FlightAware
07:14AM 49.4380 25.5060 348° North 503 579 32,000  Level FlightAware
07:14AM 49.5270 25.4780 348° North 502 578 32,000  Level FlightAware
07:15AM 49.6190 25.4490 348° North 503 579 32,000  Level FlightAware
07:16AM 49.7180 25.4180 349° North 503 579 32,000  Level FlightAware
07:16AM 49.8090 25.3890 348° North 502 578 32,000  Level FlightAware
07:17AM 49.9160 25.3550 348° North 502 578 32,000  Level FlightAware
07:18AM 50.0050 25.3260 348° North 501 577 32,000  Level FlightAware
07:18AM 50.0960 25.2970 348° North 500 575 32,000  Level FlightAware
07:19AM 50.1950 25.2650 348° North 500 575 32,000  Level FlightAware
07:20AM 50.2860 25.2350 348° North 497 572 32,000  Level FlightAware
07:21AM 50.3870 25.2020 348° North 493 567 32,000  Level FlightAware
07:21AM 50.4780 25.1720 348° North 490 564 32,000  Level FlightAware
07:22AM 50.5620 25.1450 348° North 492 566 32,000  Level FlightAware
07:23AM 50.6550 25.1140 348° North 492 566 32,000  Level FlightAware
07:23AM 50.7290 25.0890 348° North 492 566 32,000  Level FlightAware
07:24AM 50.8230 25.0580 348° North 493 567 32,000  Level FlightAware
07:25AM 50.9160 25.0270 348° North 494 568 32,000  Level FlightAware
07:25AM 51.0060 24.9970 348° North 495 570 32,000  Level FlightAware
07:26AM 51.1110 24.9610 348° North 494 568 32,000  Level FlightAware
07:27AM 51.2000 24.9310 348° North 493 567 32,000  Level FlightAware
07:28AM 51.2930 24.8990 348° North 490 564 32,000  Level FlightAware
07:28AM 51.3850 24.8680 348° North 480 552 32,000  Level FlightAware
07:29AM 51.4660 24.8400 348° North 479 551 32,000  Level FlightAware
07:30AM 51.5720 24.8030 348° North 479 551 32,000  Level FlightAware
07:30AM 51.6580 24.7730 348° North 477 549 32,000  Level FlightAware
07:31AM 51.7550 24.7390 348° North 474 545 32,000  Level FlightAware
07:32AM 51.8380 24.7100 348° North 472 543 32,000  Level FlightAware
07:32AM 51.9240 24.6800 348° North 475 547 32,000  Level FlightAware
07:33AM 52.0230 24.6450 348° North 475 547 32,000  Level FlightAware
07:34AM 52.1090 24.6150 348° North 473 544 32,000  Level FlightAware
07:35AM 52.2040 24.5810 348° North 472 543 32,000  Level FlightAware
07:35AM 52.2900 24.5510 348° North 476 548 32,000  Level FlightAware
07:36AM 52.3870 24.5160 348° North 480 552 32,000  Level FlightAware
07:37AM 52.4670 24.4870 348° North 478 550 32,000  Level FlightAware
07:37AM 52.5590 24.4540 348° North 478 550 32,000  Level FlightAware
07:38AM 52.6500 24.4210 348° North 478 550 32,000  Level FlightAware
07:39AM 52.7400 24.3890 348° North 483 556 32,000  Level FlightAware
07:40AM 52.8560 24.3460 347° North 487 560 32,000  Level FlightAware
07:40AM 52.9560 24.3100 348° North 489 563 32,000  Level FlightAware
07:41AM 53.0440 24.2780 348° North 489 563 32,000  Level FlightAware
07:42AM 53.1420 24.2400 347° North 489 563 32,000  Level FlightAware
07:43AM 53.2340 24.2040 347° North 489 563 32,000  Level FlightAware
07:43AM 53.3440 24.1600 347° North 488 562 32,000  Level FlightAware
07:44AM 53.4470 24.1200 347° North 492 566 32,000  Level FlightAware
07:45AM 53.5340 24.0850 347° North 494 568 32,000  Level FlightAware
07:45AM 53.6330 24.0460 347° North 494 568 32,000  Level FlightAware
07:46AM 53.7200 24.0050 344° North 492 566 32,000  Level FlightAware
07:47AM 53.8140 23.9610 345° North 492 566 32,000  Level FlightAware
07:47AM 53.9020 23.9200 345° North 492 566 32,000  Level FlightAware
07:49AM 54.0570 23.8270 341° North 488 562 32,000  Level FlightAware
07:49AM 54.1400 23.7720 339° North 487 560 32,000  Level FlightAware
07:50AM 54.2250 23.7160 339° North 486 559 32,000  Level FlightAware
07:51AM 54.3180 23.6540 339° North 486 559 32,000  Level FlightAware
07:51AM 54.3930 23.6040 339° North 485 558 32,000  Level FlightAware
07:52AM 54.4930 23.5360 338° Northwest 484 557 32,000  Level FlightAware
07:53AM 54.5800 23.4770 339° North 485 558 32,000  Level FlightAware
07:54AM 54.6700 23.4160 339° North 485 558 32,000  Level FlightAware
07:54AM 54.7540 23.3580 338° Northwest 487 560 32,000  Level FlightAware
07:55AM 54.8370 23.3020 339° North 487 560 32,000  Level FlightAware
07:56AM 54.9340 23.2340 338° Northwest 486 559 32,000  Level FlightAware
07:56AM 55.0120 23.1800 338° Northwest 486 559 32,000  Level FlightAware
07:57AM 55.1090 23.1130 338° Northwest 487 560 32,000  Level FlightAware
07:58AM 55.1940 23.0530 338° Northwest 488 562 32,000  Level FlightAware
07:58AM 55.2760 22.9960 338° Northwest 487 560 32,000  Level FlightAware
07:59AM 55.3700 22.9300 338° Northwest 486 559 32,000  Level FlightAware
08:00AM 55.4510 22.8720 338° Northwest 486 559 32,000  Level FlightAware
08:01AM 55.5470 22.8040 338° Northwest 487 560 32,000  Level FlightAware
08:01AM 55.6290 22.7450 338° Northwest 488 562 32,000  Level FlightAware
08:02AM 55.7110 22.6860 338° Northwest 487 560 32,000  Level FlightAware
08:03AM 55.8080 22.6160 338° Northwest 486 559 32,000  Level FlightAware
08:03AM 55.8910 22.5550 338° Northwest 486 559 32,000  Level FlightAware
08:04AM 55.9760 22.4930 338° Northwest 488 562 32,000  Level FlightAware
08:05AM 56.0640 22.4290 338° Northwest 487 560 32,000  Level FlightAware
08:05AM 56.1520 22.3640 338° Northwest 488 562 32,000  Level FlightAware
08:06AM 56.2470 22.2930 337° Northwest 486 559 32,000  Level FlightAware
08:07AM 56.3300 22.2320 338° Northwest 486 559 32,000  Level FlightAware
08:08AM 56.4210 22.1630 337° Northwest 486 559 32,000  Level FlightAware
08:08AM 56.5030 22.0980 336° Northwest 486 559 32,000  Level FlightAware
08:09AM 56.5840 22.0330 336° Northwest 486 559 32,000  Level FlightAware
08:10AM 56.6790 21.9560 336° Northwest 485 558 32,000  Level FlightAware
08:10AM 56.7600 21.8910 336° Northwest 482 555 32,000  Level FlightAware
08:11AM 56.8410 21.8250 336° Northwest 481 554 32,000  Level FlightAware
08:12AM 56.9310 21.7510 336° Northwest 479 551 32,000  Level FlightAware
08:12AM 57.0110 21.6860 336° Northwest 480 552 32,000  Level FlightAware
08:13AM 57.1030 21.6100 336° Northwest 480 552 32,000  Level FlightAware
08:14AM 57.1830 21.5440 336° Northwest 477 549 32,000  Level FlightAware
08:15AM 57.2720 21.4700 336° Northwest 476 548 32,000  Level FlightAware
08:15AM 57.3520 21.4030 336° Northwest 476 548 32,000  Level FlightAware
08:16AM 57.4360 21.3320 336° Northwest 475 547 32,000  Level FlightAware
08:17AM 57.5160 21.2640 335° Northwest 476 548 32,000  Level FlightAware
08:17AM 57.6040 21.1890 335° Northwest 476 548 32,000  Level FlightAware
08:18AM 57.6850 21.1200 336° Northwest 476 548 32,000  Level FlightAware
08:19AM 57.7720 21.0450 335° Northwest 475 547 32,000  Level FlightAware
08:19AM 57.8520 20.9760 335° Northwest 474 545 32,000  Level FlightAware
08:20AM 57.9320 20.9070 335° Northwest 471 542 32,000  Level FlightAware
08:21AM 58.0230 20.8280 335° Northwest 472 543 32,000  Level FlightAware
08:21AM 58.1020 20.7580 335° Northwest 474 545 32,000  Level FlightAware
08:22AM 58.1930 20.6780 335° Northwest 475 547 32,000  Level FlightAware
08:23AM 58.2700 20.6100 335° Northwest 476 548 32,000  Level FlightAware
08:24AM 58.3490 20.5380 334° Northwest 476 548 32,000  Level FlightAware
08:24AM 58.4380 20.4550 334° Northwest 474 545 32,000  Level FlightAware
08:25AM 58.5180 20.3810 334° Northwest 475 547 32,000  Level FlightAware
08:26AM 58.5960 20.3080 334° Northwest 471 542 32,000  Level FlightAware
08:26AM 58.6820 20.2270 334° Northwest 470 541 32,000  Level FlightAware
08:27AM 58.7590 20.1540 334° Northwest 470 541 32,000  Level FlightAware
08:28AM 58.8490 20.0690 334° Northwest 470 541 32,000  Level FlightAware
08:28AM 58.9280 19.9940 334° Northwest 469 540 32,000  Level FlightAware
08:29AM 59.0120 19.9130 334° Northwest 468 539 32,000  Level FlightAware
08:30AM 59.0900 19.8370 333° Northwest 468 539 32,000  Level FlightAware
08:31AM 59.1670 19.7620 333° Northwest 467 537 32,000  Level FlightAware
08:31AM 59.2560 19.6760 334° Northwest 467 537 32,000  Level FlightAware
08:32AM 59.3330 19.6010 334° Northwest 466 536 32,000  Level FlightAware
08:33AM 59.4170 19.5180 333° Northwest 469 540 32,000  Level FlightAware
08:33AM 59.4950 19.4400 333° Northwest 470 541 32,000  Level FlightAware
08:34AM 59.5720 19.3640 333° Northwest 469 540 32,000  Level FlightAware
08:35AM 59.6610 19.2750 333° Northwest 470 541 32,000  Level FlightAware
08:35AM 59.7400 19.1950 333° Northwest 469 540 32,000  Level FlightAware
08:36AM 59.8240 19.1100 333° Northwest 471 542 32,000  Level FlightAware
08:37AM 59.9010 19.0310 333° Northwest 470 541 32,000  Level FlightAware
08:38AM 59.9780 18.9520 333° Northwest 470 541 32,000  Level FlightAware
08:38AM 60.0670 18.8610 333° Northwest 471 542 32,000  Level FlightAware
08:39AM 60.1430 18.7820 333° Northwest 470 541 32,000  Level FlightAware
08:40AM 60.2210 18.7000 332° Northwest 470 541 32,000  Level FlightAware
08:40AM 60.3070 18.6110 333° Northwest 471 542 32,000  Level FlightAware
08:41AM 60.3830 18.5300 332° Northwest 469 540 32,000  Level FlightAware
08:42AM 60.4700 18.4390 333° Northwest 466 536 32,000  Level FlightAware
08:42AM 60.5460 18.3560 332° Northwest 465 535 32,000  Level FlightAware
08:43AM 60.6280 18.2550 329° Northwest 463 533 32,000  Level FlightAware
08:44AM 60.6990 18.1660 328° Northwest 463 533 32,000  Level FlightAware
08:45AM 60.7740 18.0760 330° Northwest 466 536 32,000  Level FlightAware
08:45AM 60.8580 17.9730 329° Northwest 467 537 32,000  Level FlightAware
08:46AM 60.9310 17.8820 329° Northwest 467 537 32,000  Level FlightAware
08:47AM 61.0060 17.7900 329° Northwest 466 536 32,000  Level FlightAware
08:47AM 61.0880 17.6850 328° Northwest 467 537 32,000  Level FlightAware
08:48AM 61.1560 17.5990 329° Northwest 467 537 32,000  Level FlightAware
08:49AM 61.2700 17.4520 328° Northwest 469 540 32,000  Level FlightAware
08:50AM 61.3420 17.3600 329° Northwest 468 539 32,000  Level FlightAware
08:50AM 61.4170 17.2630 328° Northwest 469 540 32,000  Level FlightAware
08:51AM 61.4950 17.1600 328° Northwest 470 541 32,000  Level FlightAware
08:52AM 61.5710 17.0610 328° Northwest 471 542 32,000  Level FlightAware
08:53AM 61.6510 16.9520 327° Northwest 472 543 32,000  Level FlightAware
08:53AM 61.7320 16.8470 328° Northwest 474 545 32,000  Level FlightAware
08:54AM 61.8280 16.7190 328° Northwest 475 547 32,000  Level FlightAware
08:55AM 61.9170 16.5970 327° Northwest 474 545 32,000  Level FlightAware
08:56AM 61.9890 16.5000 328° Northwest 473 544 32,000  Level FlightAware
08:56AM 62.0590 16.4040 327° Northwest 465 535 32,000  Level FlightAware
08:57AM 62.1420 16.2910 328° Northwest 465 535 32,000  Level FlightAware
08:58AM 62.2160 16.1880 327° Northwest 464 534 32,000  Level FlightAware
08:58AM 62.2880 16.0880 327° Northwest 468 539 32,000  Level FlightAware
08:59AM 62.3720 15.9710 327° Northwest 477 549 32,000  Level FlightAware
09:00AM 62.4460 15.8660 327° Northwest 477 549 32,000  Level FlightAware
09:00AM 62.5290 15.7490 327° Northwest 478 550 32,000  Level FlightAware
09:01AM 62.6030 15.6420 326° Northwest 479 551 32,000  Level FlightAware
09:02AM 62.6770 15.5360 327° Northwest 481 554 32,000  Level FlightAware
09:03AM 62.7590 15.4180 327° Northwest 482 555 32,000  Level FlightAware
09:03AM 62.8320 15.3120 326° Northwest 482 555 32,000  Level FlightAware
09:04AM 62.9170 15.1880 326° Northwest 485 558 32,000  Level FlightAware
09:05AM 62.9900 15.0800 326° Northwest 482 555 32,000  Level FlightAware
09:05AM 63.0740 14.9560 326° Northwest 473 544 32,000  Level FlightAware
09:06AM 63.1470 14.8460 326° Northwest 473 544 32,000  Level FlightAware
09:07AM 63.2200 14.7370 326° Northwest 473 544 32,000  Level FlightAware
09:07AM 63.3030 14.6110 326° Northwest 473 544 32,000  Level FlightAware
09:08AM 63.3760 14.5000 326° Northwest 474 545 32,000  Level FlightAware
09:09AM 63.4490 14.3880 326° Northwest 473 544 32,000  Level FlightAware
09:10AM 63.5320 14.2600 326° Northwest 474 545 32,000  Level FlightAware
09:10AM 63.6040 14.1480 325° Northwest 474 545 32,000  Level FlightAware
09:11AM 63.6870 14.0190 325° Northwest 474 545 32,000  Level FlightAware
09:12AM 63.7590 13.9050 325° Northwest 473 544 32,000  Level FlightAware
09:12AM 63.8400 13.7770 325° Northwest 476 548 32,000  Level FlightAware
09:13AM 63.9210 13.6480 325° Northwest 477 549 32,000  Level FlightAware
09:14AM 63.9930 13.5320 325° Northwest 478 550 32,000  Level FlightAware
09:14AM 64.0630 13.4190 325° Northwest 473 544 32,000  Level FlightAware
09:15AM 64.1440 13.2870 325° Northwest 479 551 32,000  Level FlightAware
09:16AM 64.2170 13.1670 324° Northwest 478 550 32,000  Level FlightAware
09:17AM 64.3150 13.0060 325° Northwest 479 551 32,000  Level FlightAware
09:18AM 64.4050 12.8550 324° Northwest 479 551 32,000 720 Level FlightAware
09:18AM 64.4900 12.7120 324° Northwest 478 550 33,200 1,500 Climbing FlightAware
09:19AM 64.5510 12.6100 324° Northwest 473 544 34,000 600 Climbing FlightAware
09:20AM 64.6230 12.4860 324° Northwest 471 542 34,000  Level FlightAware
09:20AM 64.7070 12.3430 324° Northwest 474 545 34,000  Level FlightAware
09:21AM 64.7730 12.2270 323° Northwest 474 545 34,000  Level FlightAware
09:22AM 64.8330 12.1210 323° Northwest 474 545 34,000  Level FlightAware
09:23AM 64.8920 12.0150 323° Northwest 474 545 34,000  Level FlightAware
09:23AM 64.9960 11.8370 324° Northwest 472 543 34,000  Level FlightAware
09:24AM 65.0640 11.7170 323° Northwest 470 541 34,000  Level FlightAware
09:25AM 65.1340 11.5890 322° Northwest 471 542 34,000  Level FlightAware
09:25AM 65.2200 11.4380 324° Northwest 467 537 34,000  Level FlightAware
09:26AM 65.2950 11.3020 323° Northwest 466 536 34,000  Level FlightAware
09:27AM 65.3740 11.1580 323° Northwest 468 539 34,000  Level FlightAware
09:28AM 65.4340 11.0450 322° Northwest 468 539 34,000  Level FlightAware
09:28AM 65.5150 10.8970 323° Northwest 468 539 34,000  Level FlightAware
09:29AM 65.5660 10.8020 322° Northwest 468 539 34,000  Level FlightAware
09:30AM 65.6240 10.6920 322° Northwest 468 539 34,000  Level FlightAware
09:31AM 65.7370 10.4800 322° Northwest 467 537 34,000  Level FlightAware
09:31AM 65.8070 10.3450 322° Northwest 467 537 34,000  Level FlightAware
09:32AM 65.8650 10.2340 322° Northwest 467 537 34,000  Level FlightAware
09:33AM 65.9650 10.0410 322° Northwest 34,000  Level FlightAware
09:34AM 66.0550 9.8620 321° Northwest 464 534 34,000  Level FlightAware
09:34AM 66.1230 9.7310 322° Northwest 463 533 34,000  Level FlightAware
09:35AM 66.2020 9.5720 321° Northwest 463 533 34,000  Level FlightAware
09:36AM 66.2590 9.4580 321° Northwest 463 533 34,000  Level FlightAware
09:37AM 66.3300 9.3150 321° Northwest 463 533 34,000  Level FlightAware
09:37AM 66.4230 9.1270 321° Northwest 461 531 34,000  Level FlightAware
09:38AM 66.5080 8.9490 320° Northwest 462 532 34,000  Level FlightAware
09:39AM 66.5640 8.8320 320° Northwest 462 532 34,000  Level FlightAware
09:40AM 66.6200 8.7150 320° Northwest 462 532 34,000  Level FlightAware
09:40AM 66.6890 8.5670 320° Northwest 462 532 34,000  Level FlightAware
09:41AM 66.7450 8.4490 320° Northwest 462 532 34,000  Level FlightAware
09:42AM 66.8010 8.3300 320° Northwest 462 532 34,000  Level FlightAware
09:42AM 66.8560 8.2120 320° Northwest 462 532 34,000  Level FlightAware
09:43AM 66.9120 8.0930 320° Northwest 462 532 34,000  Level FlightAware
09:44AM 66.9670 7.9730 320° Northwest 462 532 34,000  Level FlightAware
09:45AM 67.0370 7.8240 320° Northwest 462 532 34,000  Level FlightAware
09:45AM 67.0930 7.7040 320° Northwest 462 532 34,000  Level FlightAware
09:46AM 67.1480 7.5840 320° Northwest 462 532 34,000  Level FlightAware
09:47AM 67.2040 7.4630 320° Northwest 462 532 34,000  Level FlightAware
09:47AM 67.2600 7.3430 320° Northwest 462 532 34,000  Level FlightAware
09:50AM 67.4681 6.7890 315° West  Level Estimated
09:51AM 67.5613 6.5359 314° West  Level Estimated
09:52AM 67.6542 6.2807 314° West  Level Estimated
09:53AM 67.7466 6.0236 314° West  Level Estimated
09:54AM 67.8386 5.7644 313° West  Level Estimated
09:55AM 67.9302 5.5032 313° West  Level Estimated
09:56AM 68.0214 5.2400 313° West  Level Estimated
09:57AM 68.1122 4.9746 313° West  Level Estimated
09:58AM 68.2026 4.7072 312° West  Level Estimated
09:59AM 68.2925 4.4376 312° West  Level Estimated
10:00AM 68.3820 4.1659 312° West  Level Estimated
10:01AM 68.4710 3.8921 312° West  Level Estimated
10:02AM 68.5596 3.6161 311° West  Level Estimated
10:03AM 68.6477 3.3379 311° West  Level Estimated
10:04AM 68.7354 3.0575 311° West  Level Estimated
10:05AM 68.8226 2.7750 311° West  Level Estimated
10:06AM 68.9093 2.4902 310° West  Level Estimated
10:07AM 68.9955 2.2032 310° West  Level Estimated
10:08AM 69.0813 1.9139 310° West  Level Estimated
10:09AM 69.1666 1.6223 310° West  Level Estimated
10:10AM 69.2513 1.3285 309° West  Level Estimated
10:11AM 69.3356 1.0324 309° West  Level Estimated
10:12AM 69.4194 0.7339 309° West  Level Estimated
10:13AM 69.5026 0.4331 308° West  Level Estimated
10:14AM 69.5853 0.1300 308° West  Level Estimated
10:15AM 69.6675 -0.1754 308° West  Level Estimated
10:16AM 69.7492 -0.4832 308° West  Level Estimated
10:17AM 69.8303 -0.7935 307° West  Level Estimated
10:18AM 69.9109 -1.1061 307° West  Level Estimated
10:19AM 69.9909 -1.4211 307° West  Level Estimated
10:20AM 70.0703 -1.7385 306° West  Level Estimated
10:21AM 70.1492 -2.0583 306° West  Level Estimated
10:22AM 70.2275 -2.3806 306° West  Level Estimated
10:23AM 70.3053 -2.7054 305° West  Level Estimated
10:24AM 70.3824 -3.0326 305° West  Level Estimated
10:25AM 70.4589 -3.3622 305° West  Level Estimated
10:26AM 70.5349 -3.6944 305° West  Level Estimated
10:27AM 70.6102 -4.0290 304° West  Level Estimated
10:28AM 70.6849 -4.3662 304° West  Level Estimated
10:29AM 70.7590 -4.7058 304° West  Level Estimated
10:30AM 70.8325 -5.0480 303° West  Level Estimated
10:31AM 70.9053 -5.3927 303° West  Level Estimated
10:32AM 70.9775 -5.7399 303° West  Level Estimated
10:33AM 71.0490 -6.0897 302° West  Level Estimated
10:34AM 71.1199 -6.4420 302° West  Level Estimated
10:35AM 71.1901 -6.7968 302° West  Level Estimated
10:36AM 71.2596 -7.1542 301° West  Level Estimated
10:37AM 71.3284 -7.5142 301° West  Level Estimated
10:38AM 71.3966 -7.8766 301° West  Level Estimated
10:39AM 71.4640 -8.2417 300° West  Level Estimated
10:40AM 71.5308 -8.6093 300° West  Level Estimated
10:41AM 71.5968 -8.9795 300° West  Level Estimated
10:42AM 71.6621 -9.3522 299° West  Level Estimated
10:43AM 71.7267 -9.7275 299° West  Level Estimated
10:44AM 71.7905 -10.1054 299° West  Level Estimated
10:45AM 71.8536 -10.4858 298° West  Level Estimated
10:46AM 71.9160 -10.8687 298° West  Level Estimated
10:47AM 71.9775 -11.2542 297° West  Level Estimated
10:48AM 72.0384 -11.6423 297° West  Level Estimated
10:49AM 72.0984 -12.0328 297° West  Level Estimated
10:50AM 72.1577 -12.4259 296° West  Level Estimated
10:51AM 72.2161 -12.8215 296° West  Level Estimated
10:52AM 72.2738 -13.2197 296° West  Level Estimated
10:53AM 72.3307 -13.6203 295° West  Level Estimated
10:54AM 72.3867 -14.0234 295° West  Level Estimated
10:55AM 72.4419 -14.4290 294° West  Level Estimated
10:56AM 72.4963 -14.8370 294° West  Level Estimated
10:57AM 72.5499 -15.2475 294° West  Level Estimated
10:58AM 72.6025 -15.6604 293° West  Level Estimated
10:59AM 72.6544 -16.0757 293° West  Level Estimated
11:00AM 72.7054 -16.4934 292° West  Level Estimated
11:01AM 72.7555 -16.9135 292° West  Level Estimated
11:02AM 72.8047 -17.3359 292° West  Level Estimated
11:03AM 72.8531 -17.7607 291° West  Level Estimated
11:04AM 72.9006 -18.1878 291° West  Level Estimated
11:05AM 72.9472 -18.6172 290° West  Level Estimated
11:06AM 72.9928 -19.0488 290° West  Level Estimated
11:07AM 73.0376 -19.4827 290° West  Level Estimated
11:08AM 73.0814 -19.9187 289° West  Level Estimated
11:09AM 73.1243 -20.3570 289° West  Level Estimated
11:10AM 73.1662 -20.7973 288° West  Level Estimated
11:11AM 73.2073 -21.2398 288° West  Level Estimated
11:12AM 73.2473 -21.6844 288° West  Level Estimated
11:13AM 73.2864 -22.1310 287° West  Level Estimated
11:14AM 73.3246 -22.5797 287° West  Level Estimated
11:15AM 73.3618 -23.0303 286° West  Level Estimated
11:16AM 73.3980 -23.4828 286° West  Level Estimated
11:17AM 73.4332 -23.9372 285° West  Level Estimated
11:18AM 73.4674 -24.3935 285° West  Level Estimated
11:19AM 73.5006 -24.8516 285° West  Level Estimated
11:20AM 73.5329 -25.3115 284° West  Level Estimated
11:21AM 73.5641 -25.7731 284° West  Level Estimated
11:22AM 73.5943 -26.2364 283° West  Level Estimated
11:23AM 73.6235 -26.7013 283° West  Level Estimated
11:24AM 73.6517 -27.1678 282° West  Level Estimated
11:25AM 73.6788 -27.6358 282° West  Level Estimated
11:26AM 73.7049 -28.1054 281° West  Level Estimated
11:27AM 73.7300 -28.5763 281° West  Level Estimated
11:28AM 73.7540 -29.0487 281° West  Level Estimated
11:29AM 73.7770 -29.5224 280° West  Level Estimated
11:30AM 73.7989 -29.9973 280° West  Level Estimated
11:31AM 73.8198 -30.4735 279° West  Level Estimated
11:32AM 73.8396 -30.9509 279° West  Level Estimated
11:33AM 73.8583 -31.4293 278° West  Level Estimated
11:34AM 73.8760 -31.9088 278° West  Level Estimated
11:35AM 73.8926 -32.3893 277° West  Level Estimated
11:36AM 73.9081 -32.8708 277° West  Level Estimated
11:37AM 73.9225 -33.3531 276° West  Level Estimated
11:38AM 73.9359 -33.8362 276° West  Level Estimated
11:39AM 73.9482 -34.3201 275° West  Level Estimated
11:40AM 73.9593 -34.8046 275° West  Level Estimated
11:41AM 73.9694 -35.2898 275° West  Level Estimated
11:42AM 73.9784 -35.7756 274° West  Level Estimated
11:43AM 73.9863 -36.2618 274° West  Level Estimated
11:44AM 73.9931 -36.7485 273° West  Level Estimated
11:45AM 73.9989 -37.2355 273° West  Level Estimated
11:46AM 74.0035 -37.7229 272° West  Level Estimated
11:47AM 74.0070 -38.2105 272° West  Level Estimated
11:48AM 74.0094 -38.6983 271° West  Level Estimated
11:49AM 74.0107 -39.1862 271° West  Level Estimated
11:50AM 74.0110 -39.6741 270° West  Level Estimated
11:51AM 74.0101 -40.1620 270° West  Level Estimated
11:52AM 74.0081 -40.6499 269° West  Level Estimated
11:53AM 74.0050 -41.1375 269° West  Level Estimated
11:54AM 74.0008 -41.6250 268° West  Level Estimated
11:55AM 73.9956 -42.1122 268° West  Level Estimated
11:56AM 73.9892 -42.5990 268° West  Level Estimated
11:57AM 73.9817 -43.0855 267° West  Level Estimated
11:58AM 73.9731 -43.5714 267° West  Level Estimated
11:59AM 73.9635 -44.0568 266° West  Level Estimated
12:00PM 73.9527 -44.5417 266° West  Level Estimated
12:01PM 73.9409 -45.0258 265° West  Level Estimated
12:02PM 73.9280 -45.5092 265° West  Level Estimated
12:03PM 73.9140 -45.9919 264° West  Level Estimated
12:04PM 73.8989 -46.4737 264° West  Level Estimated
12:05PM 73.8827 -46.9546 263° West  Level Estimated
12:06PM 73.8655 -47.4345 263° West  Level Estimated
12:07PM 73.8472 -47.9133 262° West  Level Estimated
12:08PM 73.8278 -48.3911 262° West  Level Estimated
12:09PM 73.8073 -48.8678 261° West  Level Estimated
12:10PM 73.7858 -49.3432 261° West  Level Estimated
12:11PM 73.7633 -49.8174 261° West  Level Estimated
12:12PM 73.7397 -50.2903 260° West  Level Estimated
12:13PM 73.7150 -50.7618 260° West  Level Estimated
12:14PM 73.6893 -51.2320 259° West  Level Estimated
12:15PM 73.6626 -51.7006 259° West  Level Estimated
12:16PM 73.6349 -52.1677 258° West  Level Estimated
12:17PM 73.6061 -52.6333 258° West  Level Estimated
12:18PM 73.5763 -53.0972 257° West  Level Estimated
12:19PM 73.5454 -53.5595 257° West  Level Estimated
12:20PM 73.5136 -54.0201 257° West  Level Estimated
12:21PM 73.4808 -54.4789 256° West  Level Estimated
12:22PM 73.4470 -54.9359 256° West  Level Estimated
12:23PM 73.4121 -55.3911 255° West  Level Estimated
12:24PM 73.3763 -55.8444 255° West  Level Estimated
12:25PM 73.3395 -56.2958 254° West  Level Estimated
12:26PM 73.3018 -56.7452 254° West  Level Estimated
12:27PM 73.2630 -57.1926 253° West  Level Estimated
12:28PM 73.2234 -57.6380 253° West  Level Estimated
12:29PM 73.1827 -58.0813 253° West  Level Estimated
12:30PM 73.1411 -58.5226 252° West  Level Estimated
12:31PM 73.0986 -58.9617 252° West  Level Estimated
12:32PM 73.0552 -59.3986 251° West  Level Estimated
12:33PM 73.0108 -59.8333 251° West  Level Estimated
12:34PM 72.9655 -60.2659 251° West  Level Estimated
12:35PM 72.9193 -60.6961 250° West  Level Estimated
12:36PM 72.8722 -61.1241 250° West  Level Estimated
12:37PM 72.8242 -61.5498 249° West  Level Estimated
12:38PM 72.7753 -61.9732 249° West  Level Estimated
12:39PM 72.7255 -62.3942 248° West  Level Estimated
12:40PM 72.6749 -62.8129 248° West  Level Estimated
12:41PM 72.6234 -63.2292 248° West  Level Estimated
12:42PM 72.5710 -63.6430 247° West  Level Estimated
12:43PM 72.5178 -64.0545 247° West  Level Estimated
12:44PM 72.4637 -64.4635 246° West  Level Estimated
12:45PM 72.4088 -64.8701 246° West  Level Estimated
12:46PM 72.3531 -65.2741 246° West  Level Estimated
12:47PM 72.2966 -65.6758 245° Southwest  Level Estimated
12:48PM 72.2392 -66.0749 245° Southwest  Level Estimated
12:49PM 72.1811 -66.4715 245° Southwest  Level Estimated
12:50PM 72.1221 -66.8656 244° Southwest  Level Estimated
12:51PM 72.0624 -67.2572 244° Southwest  Level Estimated
12:52PM 72.0019 -67.6462 243° Southwest  Level Estimated
12:53PM 71.9406 -68.0327 243° Southwest  Level Estimated
12:54PM 71.8786 -68.4167 243° Southwest  Level Estimated
12:55PM 71.8158 -68.7981 242° Southwest  Level Estimated
12:56PM 71.7522 -69.1770 242° Southwest  Level Estimated
12:57PM 71.6880 -69.5533 242° Southwest  Level Estimated
12:58PM 71.6229 -69.9270 241° Southwest  Level Estimated
12:59PM 71.5564 -70.3026 241° Southwest  Level Estimated
01:00PM 71.4892 -70.6755 241° Southwest  Level Estimated
01:01PM 71.4212 -71.0458 240° Southwest  Level Estimated
01:02PM 71.3525 -71.4135 240° Southwest  Level Estimated
01:03PM 71.2831 -71.7785 239° Southwest  Level Estimated
01:04PM 71.2130 -72.1410 239° Southwest  Level Estimated
01:05PM 71.1422 -72.5008 239° Southwest  Level Estimated
01:06PM 71.0707 -72.8580 238° Southwest  Level Estimated
01:07PM 70.9985 -73.2126 238° Southwest  Level Estimated
01:08PM 70.9257 -73.5647 238° Southwest  Level Estimated
01:09PM 70.8522 -73.9141 237° Southwest  Level Estimated
01:10PM 70.7781 -74.2609 237° Southwest  Level Estimated
01:11PM 70.7032 -74.6052 237° Southwest  Level Estimated
01:12PM 70.6278 -74.9469 236° Southwest  Level Estimated
01:13PM 70.5517 -75.2861 236° Southwest  Level Estimated
01:14PM 70.4750 -75.6227 236° Southwest  Level Estimated
01:15PM 70.3977 -75.9567 236° Southwest  Level Estimated
01:16PM 70.3198 -76.2883 235° Southwest  Level Estimated
01:17PM 70.2413 -76.6173 235° Southwest  Level Estimated
01:18PM 70.1621 -76.9437 235° Southwest  Level Estimated
01:19PM 70.0824 -77.2677 234° Southwest  Level Estimated
01:20PM 70.0021 -77.5892 234° Southwest  Level Estimated
01:21PM 69.9212 -77.9083 234° Southwest  Level Estimated
01:22PM 69.8398 -78.2248 233° Southwest  Level Estimated
01:23PM 69.7578 -78.5389 233° Southwest  Level Estimated
01:24PM 69.6752 -78.8506 233° Southwest  Level Estimated
01:25PM 69.5921 -79.1599 232° Southwest  Level Estimated
01:26PM 69.5085 -79.4667 232° Southwest  Level Estimated
01:27PM 69.4243 -79.7712 232° Southwest  Level Estimated
01:28PM 69.3396 -80.0732 232° Southwest  Level Estimated
01:29PM 69.2543 -80.3729 231° Southwest  Level Estimated
01:30PM 69.1686 -80.6703 231° Southwest  Level Estimated
01:31PM 69.0823 -80.9653 231° Southwest  Level Estimated
01:32PM 68.9956 -81.2580 230° Southwest  Level Estimated
01:33PM 68.9083 -81.5484 230° Southwest  Level Estimated
01:34PM 68.8206 -81.8364 230° Southwest  Level Estimated
01:35PM 68.7323 -82.1223 230° Southwest  Level Estimated
01:36PM 68.6436 -82.4058 229° Southwest  Level Estimated
01:37PM 68.5544 -82.6871 229° Southwest  Level Estimated
01:38PM 68.4648 -82.9662 229° Southwest  Level Estimated
01:39PM 68.3747 -83.2431 229° Southwest  Level Estimated
01:40PM 68.2841 -83.5178 228° Southwest  Level Estimated
01:41PM 68.1931 -83.7903 228° Southwest  Level Estimated
01:42PM 68.1016 -84.0607 228° Southwest  Level Estimated
01:43PM 68.0098 -84.3289 228° Southwest  Level Estimated
01:44PM 67.9174 -84.5950 227° Southwest  Level Estimated
01:45PM 67.8247 -84.8589 227° Southwest  Level Estimated
01:46PM 67.7315 -85.1208 227° Southwest  Level Estimated
01:47PM 67.6379 -85.3806 227° Southwest  Level Estimated
01:48PM 67.5439 -85.6383 226° Southwest  Level Estimated
01:49PM 67.4495 -85.8940 226° Southwest  Level Estimated
01:50PM 67.3547 -86.1477 226° Southwest  Level Estimated
01:51PM 67.2595 -86.3994 226° Southwest  Level Estimated
01:52PM 67.1639 -86.6490 225° Southwest  Level Estimated
01:53PM 67.0679 -86.8967 225° Southwest  Level Estimated
01:54PM 66.9715 -87.1425 225° Southwest  Level Estimated
01:55PM 66.8748 -87.3863 225° Southwest  Level Estimated
01:56PM 66.7777 -87.6282 225° Southwest  Level Estimated
01:57PM 66.6802 -87.8681 224° Southwest  Level Estimated
01:58PM 66.5824 -88.1062 224° Southwest  Level Estimated
01:59PM 66.4842 -88.3424 224° Southwest  Level Estimated
02:00PM 66.3856 -88.5768 224° Southwest  Level Estimated
02:01PM 66.2867 -88.8093 223° Southwest  Level Estimated
02:02PM 66.1875 -89.0399 223° Southwest  Level Estimated
02:03PM 66.0879 -89.2688 223° Southwest  Level Estimated
02:04PM 65.9880 -89.4959 223° Southwest  Level Estimated
02:05PM 65.8877 -89.7212 223° Southwest  Level Estimated
02:06PM 65.7871 -89.9448 222° Southwest  Level Estimated
02:07PM 65.6862 -90.1666 222° Southwest  Level Estimated
02:08PM 65.5850 -90.3867 222° Southwest  Level Estimated
02:09PM 65.4834 -90.6050 222° Southwest  Level Estimated
02:10PM 65.3816 -90.8217 222° Southwest  Level Estimated
02:11PM 65.2794 -91.0367 221° Southwest  Level Estimated
02:12PM 65.1770 -91.2501 221° Southwest  Level Estimated
02:13PM 65.0742 -91.4618 221° Southwest  Level Estimated
02:14PM 64.9711 -91.6719 221° Southwest  Level Estimated
02:15PM 64.8678 -91.8803 221° Southwest  Level Estimated
02:16PM 64.7641 -92.0872 220° Southwest  Level Estimated
02:17PM 64.6602 -92.2924 220° Southwest  Level Estimated
02:18PM 64.5560 -92.4961 220° Southwest  Level Estimated
02:19PM 64.4515 -92.6983 220° Southwest  Level Estimated
02:20PM 64.3467 -92.8989 220° Southwest  Level Estimated
02:21PM 64.2417 -93.0980 220° Southwest  Level Estimated
02:22PM 64.1364 -93.2956 219° Southwest  Level Estimated
02:23PM 64.0308 -93.4917 219° Southwest  Level Estimated
02:24PM 63.9250 -93.6863 219° Southwest  Level Estimated
02:25PM 63.8189 -93.8794 219° Southwest  Level Estimated
02:26PM 63.7125 -94.0711 219° Southwest  Level Estimated
02:27PM 63.6059 -94.2613 218° Southwest  Level Estimated
02:28PM 63.4991 -94.4502 218° Southwest  Level Estimated
02:29PM 63.3920 -94.6376 218° Southwest  Level Estimated
02:30PM 63.2846 -94.8236 218° Southwest  Level Estimated
02:31PM 63.1770 -95.0082 218° Southwest  Level Estimated
02:32PM 63.0692 -95.1915 218° Southwest  Level Estimated
02:33PM 62.9612 -95.3734 217° Southwest  Level Estimated
02:34PM 62.8529 -95.5540 217° Southwest  Level Estimated
02:35PM 62.7443 -95.7333 217° Southwest  Level Estimated
02:36PM 62.6356 -95.9112 217° Southwest  Level Estimated
02:37PM 62.5266 -96.0879 217° Southwest  Level Estimated
02:38PM 62.4174 -96.2632 217° Southwest  Level Estimated
02:39PM 62.3080 -96.4373 217° Southwest  Level Estimated
02:40PM 62.1984 -96.6101 216° Southwest  Level Estimated
02:41PM 62.0886 -96.7816 216° Southwest  Level Estimated
02:42PM 61.9785 -96.9520 216° Southwest  Level Estimated
02:43PM 61.8682 -97.1210 216° Southwest  Level Estimated
02:44PM 61.7578 -97.2889 216° Southwest  Level Estimated
02:45PM 61.6471 -97.4556 216° Southwest  Level Estimated
02:46PM 61.5362 -97.6211 215° Southwest  Level Estimated
02:47PM 61.4252 -97.7854 215° Southwest  Level Estimated
02:48PM 61.3139 -97.9485 215° Southwest  Level Estimated
02:49PM 61.2024 -98.1105 215° Southwest  Level Estimated
02:50PM 61.0908 -98.2714 215° Southwest  Level Estimated
02:51PM 60.9790 -98.4311 215° Southwest  Level Estimated
02:52PM 60.8669 -98.5897 215° Southwest  Level Estimated
02:53PM 60.7547 -98.7472 214° Southwest  Level Estimated
02:54PM 60.6423 -98.9035 214° Southwest  Level Estimated
02:55PM 60.5297 -99.0588 214° Southwest  Level Estimated
02:56PM 60.4170 -99.2131 214° Southwest  Level Estimated
02:57PM 60.3040 -99.3662 214° Southwest  Level Estimated
02:58PM 60.1909 -99.5183 214° Southwest  Level Estimated
02:59PM 60.0776 -99.6693 214° Southwest  Level Estimated
02:59PM 62.9000 -106.7833 213° Southwest 510 587 34,000  Level Edmonton Center
03:00PM 59.9642 -99.8194 214° Southwest  Level Estimated
03:00PM 62.7667 -106.8833 199° South 500 575 34,000  Level Edmonton Center
03:01PM 59.8506 -99.9683 213° Southwest  Level Estimated
03:01PM 62.6333 -106.9833 199° South 490 564 34,000  Level Edmonton Center
03:02PM 59.7368 -100.1163 213° Southwest  Level Estimated
03:02PM 62.5000 -107.0833 199° South 510 587 34,000  Level Edmonton Center
03:03PM 59.6228 -100.2633 213° Southwest  Level Estimated
03:03PM 62.3667 -107.1833 199° South 500 575 34,000  Level Edmonton Center
03:04PM 59.5087 -100.4093 213° Southwest  Level Estimated
03:04PM 62.2333 -107.2833 199° South 500 575 34,000  Level Edmonton Center
03:05PM 59.3944 -100.5543 213° Southwest  Level Estimated
03:05PM 62.1000 -107.3833 199° South 500 575 34,000  Level Edmonton Center
03:06PM 61.9667 -107.4833 199° South 500 575 34,000  Level Edmonton Center
03:07PM 61.8333 -107.5833 200° South 500 575 34,000  Level Edmonton Center
03:08PM 61.7000 -107.6833 200° South 510 587 34,000  Level Edmonton Center
03:09PM 61.5667 -107.7667 197° South 510 587 34,000  Level Edmonton Center
03:10PM 61.4167 -107.8667 198° South 510 587 34,000  Level Edmonton Center
03:11PM 61.2833 -107.9667 200° South 510 587 34,000  Level Edmonton Center
03:12PM 61.1500 -108.0500 197° South 510 587 34,000  Level Edmonton Center
03:13PM 61.0000 -108.1500 198° South 520 598 34,000  Level Edmonton Center
03:14PM 60.8667 -108.2333 197° South 520 598 34,000  Level Edmonton Center
03:15PM 60.7333 -108.3333 200° South 520 598 34,000  Level Edmonton Center
03:16PM 60.6000 -108.4167 197° South 520 598 34,000  Level Edmonton Center
03:17PM 60.4500 -108.5000 195° South 520 598 34,000  Level Edmonton Center
03:18PM 60.3167 -108.5833 197° South 520 598 34,000  Level Edmonton Center
03:19PM 60.1667 -108.7167 204° Southwest 520 598 34,000  Level Edmonton Center
03:20PM 60.0167 -108.8000 196° South 520 598 34,000  Level Edmonton Center
03:21PM 59.8833 -108.8833 197° South 520 598 34,000  Level Edmonton Center
03:22PM 59.7500 -108.9667 197° South 530 610 34,000  Level Edmonton Center
03:23PM 59.6000 -109.0500 196° South 530 610 34,000  Level Edmonton Center
03:24PM 59.4667 -109.1333 198° South 530 610 34,000  Level Edmonton Center
03:25PM 59.3333 -109.2167 198° South 530 610 34,000  Level Edmonton Center
03:26PM 59.1667 -109.3000 194° South 530 610 34,000  Level Edmonton Center
03:27PM 59.0333 -109.4167 204° Southwest 540 621 34,000  Level Edmonton Center
03:28PM 58.9000 -109.5000 198° South 540 621 34,000  Level Edmonton Center
03:29PM 58.7333 -109.5667 192° South 540 621 34,000  Level Edmonton Center
03:30PM 58.5833 -109.6500 196° South 540 621 34,000  Level Edmonton Center
03:31PM 58.4500 -109.7667 205° Southwest 540 621 34,000  Level Edmonton Center
03:32PM 58.2833 -109.8333 192° South 540 621 34,000  Level Edmonton Center
03:33PM 58.1500 -109.9167 198° South 550 633 34,000  Level Edmonton Center
03:34PM 57.9833 -110.0167 198° South 550 633 34,000  Level Edmonton Center
03:35PM 57.8667 -110.1333 208° Southwest 540 621 34,000  Level Edmonton Center
03:36PM 57.7333 -110.2667 208° Southwest 540 621 34,000  Level Edmonton Center
03:37PM 57.5833 -110.3833 203° Southwest 540 621 34,000  Level Edmonton Center
03:38PM 57.4667 -110.4833 205° Southwest 540 621 34,000  Level Edmonton Center
03:39PM 57.3167 -110.6167 206° Southwest 540 621 34,000  Level Edmonton Center
03:40PM 57.1833 -110.7167 202° Southwest 540 621 34,000  Level Edmonton Center
03:41PM 57.0333 -110.8500 206° Southwest 540 621 34,000  Level Edmonton Center
03:42PM 56.9167 -110.9667 209° Southwest 540 621 34,000  Level Edmonton Center
03:43PM 56.7667 -111.1000 206° Southwest 540 621 34,000  Level Edmonton Center
03:44PM 56.6333 -111.2333 209° Southwest 530 610 34,000  Level Edmonton Center
03:45PM 56.4833 -111.3167 197° South 530 610 34,000  Level Edmonton Center
03:46PM 56.3667 -111.4500 212° Southwest 540 621 34,000  Level Edmonton Center
03:47PM 56.2167 -111.5500 200° South 540 621 34,000  Level Edmonton Center
03:48PM 56.0833 -111.6833 209° Southwest 540 621 34,000  Level Edmonton Center
03:49PM 55.9333 -111.7833 200° South 540 621 34,000 300 Level Edmonton Center
03:50PM 55.8000 -111.9000 206° Southwest 540 621 34,600 960 Climbing Edmonton Center
03:51PM 55.6667 -112.0000 203° Southwest 540 621 36,000 660 Climbing Edmonton Center
03:52PM 55.5167 -112.1333 207° Southwest 530 610 36,000  Level Edmonton Center
03:59PM 54.6900 -112.7680 207° Southwest 544 626 36,000  Level FlightAware
04:00PM 54.5040 -112.9070 203° Southwest 544 626 36,000  Level FlightAware
04:01PM 54.4260 -112.9650 203° Southwest 544 626 36,000  Level FlightAware
04:02PM 54.1950 -113.1390 204° Southwest 544 626 36,000  Level FlightAware
04:06PM 53.7010 -113.5000 203° Southwest 544 626 36,000  Level FlightAware
04:07PM 53.5960 -113.5750 203° Southwest 546 628 36,000  Level FlightAware
04:07PM 53.5030 -113.6420 203° Southwest 546 628 36,000  Level FlightAware
04:08PM 53.3620 -113.7420 203° Southwest 539 620 36,000  Level FlightAware
04:09PM 53.2000 -113.8550 203° Southwest 547 629 36,000  Level FlightAware
04:12PM 52.8480 -114.0320 197° South 549 632 36,000  Level FlightAware
04:13PM 52.6790 -114.1130 196° South 550 633 36,000  Level FlightAware
04:15PM 52.3220 -114.2820 196° South 551 634 36,000  Level FlightAware
04:17PM 52.1520 -114.3620 196° South 553 636 36,000  Level FlightAware
04:19PM 51.7970 -114.5270 196° South 553 636 36,000  Level FlightAware
04:20PM 51.6250 -114.6060 196° South 553 636 36,000  Level FlightAware
04:21PM 51.4670 -114.6770 196° South 551 634 36,000  Level FlightAware
04:22PM 51.3550 -114.7280 196° South 550 633 36,000  Level FlightAware
04:23PM 51.2590 -114.7710 196° South 550 633 36,000  Level FlightAware
04:23PM 51.1490 -114.8200 196° South 550 633 36,000  Level FlightAware
04:24PM 51.0510 -114.8640 196° South 550 633 36,000  Level FlightAware
04:25PM 50.9530 -114.9070 195° South 551 634 36,000  Level FlightAware
04:25PM 50.8420 -114.9560 196° South 553 636 36,000  Level FlightAware
04:26PM 50.7440 -114.9990 196° South 547 629 36,000  Level FlightAware
04:27PM 50.6310 -115.0490 196° South 549 632 36,000  Level FlightAware
04:28PM 50.5340 -115.0910 195° South 554 638 36,000  Level FlightAware
04:28PM 50.4330 -115.1350 196° South 563 648 36,000  Level FlightAware
04:29PM 50.3180 -115.1840 195° South 566 651 36,000  Level FlightAware
04:30PM 50.2160 -115.2290 196° South 559 643 36,000  Level FlightAware
04:31PM 50.0580 -115.3700 210° Southwest 569 655 36,000  Level FlightAware
04:31PM 49.9820 -115.4550 216° Southwest 562 647 36,000  Level FlightAware
04:32PM 49.8770 -115.5740 216° Southwest 559 643 36,000  Level FlightAware
04:33PM 49.8100 -115.6490 216° Southwest 559 643 36,000  Level FlightAware
04:34PM 49.7390 -115.7290 216° Southwest 559 643 36,000  Level FlightAware
04:34PM 49.6680 -115.8090 216° Southwest 559 643 36,000  Level FlightAware
04:35PM 49.5970 -115.8880 216° Southwest 559 643 36,000  Level FlightAware
04:36PM 49.4530 -116.0410 215° Southwest 36,000  Level FlightAware
04:37PM 49.2910 -116.2180 215° Southwest 560 644 36,000  Level FlightAware
04:38PM 49.1350 -116.3860 215° Southwest 556 640 36,000  Level FlightAware
04:39PM 49.0710 -116.4550 215° Southwest 556 640 36,000  Level FlightAware
04:39PM 48.9810 -116.5510 215° Southwest 556 640 36,000  Level FlightAware
04:40PM 48.9100 -116.6270 215° Southwest 556 640 36,000  Level FlightAware
04:41PM 48.8380 -116.7030 215° Southwest 556 640 36,000  Level FlightAware
04:41PM 48.7660 -116.7790 215° Southwest 556 640 36,000  Level FlightAware
04:42PM 48.6950 -116.8550 215° Southwest 556 640 36,000  Level FlightAware
04:43PM 48.6230 -116.9310 215° Southwest 556 640 36,000  Level FlightAware
04:44PM 48.5330 -117.0260 215° Southwest 556 640 36,000  Level FlightAware
04:44PM 48.4620 -117.1020 215° Southwest 556 640 36,000  Level FlightAware
04:45PM 48.3900 -117.1770 215° Southwest 556 640 36,000  Level FlightAware
04:46PM 48.3180 -117.2530 215° Southwest 556 640 36,000  Level FlightAware
04:46PM 48.2290 -117.3470 215° Southwest 556 640 36,000  Level FlightAware
04:47PM 48.1570 -117.4220 215° Southwest 556 640 36,000  Level FlightAware
04:48PM 48.0860 -117.4970 215° Southwest 556 640 36,000  Level FlightAware
04:48PM 47.6878 -117.0933 215° Southwest 549 632 36,000  Level Salt Lake Center
04:54PM 46.8590 -117.3860 215° Southwest 536 617 36,000  Level FlightAware
04:54PM 46.7490 -117.4240 193° South 533 613 36,000  Level FlightAware
04:55PM 46.6530 -117.4580 194° South 529 609 36,000  Level FlightAware
04:56PM 46.5560 -117.4910 193° South 528 608 36,000  Level FlightAware
04:56PM 46.4520 -117.5280 194° South 527 606 36,000  Level FlightAware
04:57PM 46.3670 -117.5570 193° South 523 602 36,000  Level FlightAware
04:58PM 46.2520 -117.5970 194° South 522 601 36,000  Level FlightAware
04:59PM 46.1570 -117.6290 193° South 526 605 36,000  Level FlightAware
04:59PM 46.0490 -117.6660 193° South 528 608 36,000  Level FlightAware
05:00PM 45.9540 -117.6980 193° South 530 610 36,000  Level FlightAware
05:01PM 45.8490 -117.7340 193° South 530 610 36,000  Level FlightAware
05:01PM 45.7780 -117.7580 193° South 532 612 36,000  Level FlightAware
05:02PM 45.6670 -117.7950 193° South 530 610 36,000  Level FlightAware
05:03PM 45.5720 -117.8270 193° South 530 610 36,000  Level FlightAware
05:03PM 45.4780 -117.8590 193° South 528 608 36,000  Level FlightAware
05:04PM 45.3740 -117.8930 193° South 526 605 36,000  Level FlightAware
05:05PM 45.2850 -117.9230 193° South 525 604 36,000  Level FlightAware
05:05PM 45.1800 -117.9570 193° South 523 602 36,000  Level FlightAware
05:06PM 45.1000 -117.9840 193° South 523 602 36,000  Level FlightAware
05:07PM 44.9740 -118.0260 193° South 520 598 36,000  Level FlightAware
05:08PM 44.8590 -118.0630 193° South 523 602 36,000  Level FlightAware
05:08PM 44.7790 -118.0890 193° South 523 602 36,000  Level FlightAware
05:09PM 44.6990 -118.1150 193° South 523 602 36,000  Level FlightAware
05:10PM 44.5990 -118.1480 193° South 523 602 36,000  Level FlightAware
05:11PM 44.5190 -118.1740 193° South 523 602 36,000  Level FlightAware
05:11PM 44.4390 -118.2000 193° South 523 602 36,000  Level FlightAware
05:12PM 44.3580 -118.2250 192° South 523 602 36,000  Level FlightAware
05:13PM 44.2780 -118.2510 193° South 523 602 36,000  Level FlightAware
05:13PM 44.1780 -118.2840 193° South 523 602 36,000  Level FlightAware
05:14PM 44.0980 -118.3090 193° South 523 602 36,000  Level FlightAware
05:15PM 44.0180 -118.3350 193° South 523 602 36,000  Level FlightAware
05:15PM 43.9380 -118.3610 193° South 523 602 36,000  Level FlightAware
05:16PM 43.8570 -118.3860 193° South 523 602 36,000  Level FlightAware
05:17PM 43.7570 -118.4190 193° South 523 602 36,000  Level FlightAware
05:18PM 43.4781 -118.5050 193° South 510 587 36,000  Level Seattle Center
05:19PM 43.3456 -118.5467 193° South 512 589 36,000  Level Seattle Center
05:20PM 43.2125 -118.5869 192° South 511 588 36,000  Level Seattle Center
05:21PM 43.0578 -118.6364 193° South 511 588 36,000  Level Seattle Center
05:22PM 42.9278 -118.6772 193° South 504 580 36,000  Level Seattle Center
05:23PM 42.7628 -118.7239 192° South 506 582 36,000  Level Salt Lake Center
05:24PM 42.6258 -118.7661 193° South 505 581 36,000  Level Salt Lake Center
05:25PM 42.4900 -118.8069 192° South 501 577 36,000  Level Salt Lake Center
05:26PM 42.3342 -118.8531 192° South 503 579 36,000  Level Salt Lake Center
05:27PM 42.2033 -118.8928 193° South 502 578 36,000  Level Salt Lake Center
05:28PM 42.0503 -118.9378 192° South 504 580 36,000  Level Salt Lake Center
05:29PM 41.9211 -118.9756 192° South 499 574 36,000  Level Salt Lake Center
05:30PM 41.7703 -119.0219 193° South 498 573 36,000  Level Salt Lake Center
05:31PM 41.6417 -119.0594 192° South 497 572 36,000  Level Salt Lake Center
05:32PM 41.5119 -119.0967 192° South 495 570 36,000  Level Salt Lake Center
05:38PM 40.7440 -119.3170 192° South 489 563 36,000  Level FlightAware
05:38PM 40.6530 -119.3430 192° South 481 554 36,000  Level FlightAware
05:39PM 40.5750 -119.3590 189° South 487 560 36,000  Level FlightAware
05:40PM 40.4630 -119.3680 183° South 482 555 36,000  Level FlightAware
05:42PM 40.2000 -119.3830 182° South 485 558 36,000  Level FlightAware
05:42PM 40.1240 -119.3860 182° South 485 558 36,000  Level FlightAware
05:43PM 40.0040 -119.3930 183° South 485 558 36,000  Level FlightAware
05:44PM 39.9280 -119.3970 182° South 485 558 36,000  Level FlightAware
05:45PM 39.8520 -119.4000 182° South 485 558 36,000  Level FlightAware
05:45PM 39.7750 -119.4040 182° South 485 558 36,000 -600 Level FlightAware
05:46PM 39.5680 -119.4180 183° South 484 557 35,000 -480 Descending FlightAware
05:48PM 39.4080 -119.4270 182° South 485 558 35,000  Level FlightAware
05:48PM 39.3260 -119.4310 182° South 485 558 35,000  Level FlightAware
05:50PM 39.1530 -119.4400 182° South 484 557 35,000  Level FlightAware
05:50PM 39.0990 -119.4430 182° South 484 557 35,000  Level FlightAware
05:51PM 38.9150 -119.4540 183° South 481 554 35,000  Level FlightAware
05:52PM 38.8360 -119.4580 182° South 482 555 35,000  Level FlightAware
05:53PM 38.7440 -119.4630 182° South 482 555 35,000  Level FlightAware
05:53PM 38.6460 -119.4680 182° South 483 556 35,000  Level FlightAware
05:54PM 38.5530 -119.4730 182° South 485 558 35,000  Level FlightAware
05:55PM 38.4610 -119.5000 193° South 477 549 35,000  Level FlightAware
05:55PM 38.3920 -119.5380 203° Southwest 477 549 35,000  Level FlightAware
05:56PM 38.3150 -119.5760 201° Southwest 477 549 35,000  Level FlightAware
05:57PM 38.2160 -119.6100 195° South 479 551 35,000  Level FlightAware
05:58PM 38.1240 -119.6370 193° South 479 551 35,000  Level FlightAware
05:58PM 38.0340 -119.5780 153° Southeast 478 550 35,000  Level FlightAware
05:59PM 37.9480 -119.5800 181° South 477 549 35,000  Level FlightAware
05:59PM 37.8580 -119.5830 182° South 476 548 35,000  Level FlightAware
06:00PM 37.7730 -119.5860 182° South 478 550 35,000  Level FlightAware
06:01PM 37.6690 -119.5880 181° South 480 552 35,000  Level FlightAware
06:01PM 37.5690 -119.5910 181° South 481 554 35,000  Level FlightAware
06:02PM 37.4800 -119.5920 181° South 482 555 35,000  Level FlightAware
06:03PM 37.3780 -119.5950 181° South 482 555 35,000  Level FlightAware
06:04PM 37.2890 -119.5970 181° South 479 551 35,000  Level FlightAware
06:04PM 37.2020 -119.5990 181° South 476 548 35,000  Level FlightAware
06:05PM 37.1050 -119.6010 181° South 474 545 35,000  Level FlightAware
06:06PM 37.0160 -119.6030 181° South 475 547 35,000  Level FlightAware
06:06PM 36.9160 -119.6050 181° South 471 542 35,000  Level FlightAware
06:07PM 36.8340 -119.6070 181° South 464 534 35,000  Level FlightAware
06:08PM 36.7460 -119.6090 181° South 464 534 35,000  Level FlightAware
06:08PM 36.6480 -119.6110 181° South 467 537 35,000  Level FlightAware
06:09PM 36.5620 -119.6130 181° South 466 536 35,000  Level FlightAware
06:10PM 36.4640 -119.6150 181° South 464 534 35,000  Level FlightAware
06:11PM 36.3770 -119.6170 181° South 460 529 35,000  Level FlightAware
06:11PM 36.2840 -119.6190 181° South 458 527 35,000  Level FlightAware
06:12PM 36.2000 -119.6210 181° South 458 527 35,000  Level FlightAware
06:13PM 36.1070 -119.6230 181° South 457 526 35,000  Level FlightAware
06:13PM 36.0190 -119.6250 181° South 457 526 35,000  Level FlightAware
06:14PM 35.9760 -119.6260 181° South 457 526 35,000 -120 Level FlightAware
06:15PM 35.8690 -119.6280 181° South 456 525 34,900 -600 Descending FlightAware
06:15PM 35.7850 -119.6300 181° South 459 528 34,100 -1,140 Descending FlightAware
06:16PM 35.7050 -119.6320 181° South 456 525 33,400 -780 Descending FlightAware
06:17PM 35.6080 -119.6340 181° South 461 531 33,000 -300 Descending FlightAware
06:17PM 35.5220 -119.6360 181° South 461 531 33,000 -660 Level FlightAware
06:18PM 35.4240 -119.6380 181° South 464 534 32,100 -1,440 Descending FlightAware
06:19PM 35.3390 -119.6400 181° South 468 539 31,000 -1,440 Descending FlightAware
06:19PM 35.2430 -119.6230 172° South 492 566 30,100 -1,080 Descending FlightAware
06:20PM 35.1630 -119.5630 148° Southeast 498 573 29,500 -900 Descending FlightAware
06:21PM 35.0830 -119.4940 145° Southeast 494 568 28,900 -1,080 Descending FlightAware
06:22PM 35.0060 -119.4280 145° Southeast 486 559 28,000 -1,800 Descending FlightAware
06:22PM 34.9320 -119.3650 145° Southeast 479 551 26,500 -2,280 Descending FlightAware
06:23PM 34.8500 -119.2950 145° Southeast 469 540 24,800 -2,220 Descending FlightAware
06:24PM 34.7840 -119.2400 146° Southeast 462 532 23,400 -2,220 Descending FlightAware
06:24PM 34.7090 -119.1770 145° Southeast 451 519 21,900 -1,320 Descending FlightAware
06:25PM 34.6420 -119.1200 145° Southeast 451 519 21,600 -600 Descending FlightAware
06:26PM 34.5690 -119.0580 145° Southeast 401 461 21,000 -480 Descending FlightAware
06:26PM 34.5200 -119.0170 145° Southeast 401 461 21,000  Level FlightAware
06:27PM 34.4680 -118.9730 145° Southeast 401 461 21,000  Level FlightAware
06:28PM 34.4030 -118.9180 145° Southeast 401 461 21,000  Level FlightAware
06:29PM 34.3520 -118.8740 145° Southeast 401 461 21,000 -5,160 Level FlightAware
06:29PM 34.2470 -118.8410 165° South 354 407 13,700 -6,000 Descending FlightAware
06:30PM 34.1820 -118.8170 163° South 350 403 12,500 -1,740 Descending FlightAware
06:31PM 34.1220 -118.7950 163° South 344 396 11,400 -1,560 Descending FlightAware
06:31PM 34.0550 -118.7610 157° South 340 391 10,300 -1,320 Descending FlightAware
06:32PM 34.0450 -118.7460 129° Southeast 344 396 10,200 -120 Descending FlightAware
06:32PM 34.0300 -118.6750 104° East 349 402 10,200 -240 Level FlightAware
06:33PM 34.0240 -118.6020 96° East 346 398 9,900 -600 Descending FlightAware
06:33PM 34.0200 -118.5580 96° East 326 375 9,700 -780 Descending FlightAware
06:34PM 34.0150 -118.5050 96° East 302 348 9,200 -1,080 Descending FlightAware
06:34PM 34.0130 -118.4820 96° East 295 339 8,900 -1,560 Descending FlightAware
06:35PM 34.0150 -118.4180 88° East 263 303 7,800 -1,560 Descending FlightAware
06:35PM 34.0200 -118.3780 81° East 267 307 7,100 -1,200 Descending FlightAware
06:36PM 34.0240 -118.3400 83° East 266 306 6,700 -1,020 Descending FlightAware
06:36PM 34.0290 -118.2970 82° East 262 302 6,200 -1,020 Descending FlightAware
06:36PM 34.0330 -118.2600 83° East 257 296 5,800 -900 Descending FlightAware
06:37PM 34.0370 -118.2170 84° East 250 288 5,400 -600 Descending FlightAware
06:37PM 34.0420 -118.1760 82° East 231 266 5,200 -720 Descending FlightAware
06:38PM 34.0250 -118.1390 119° Southeast 198 228 4,600 -1,080 Descending FlightAware
06:39PM 34.0010 -118.1500 201° Southwest 194 223 4,000 -1,200 Descending FlightAware
06:39PM 33.9890 -118.1710 235° Southwest 197 227 3,500 -1,020 Descending FlightAware
06:40PM 33.9740 -118.1990 237° Southwest 197 227 3,100 -780 Descending FlightAware
06:40PM 33.9680 -118.2250 254° West 201 231 2,800 -600 Descending FlightAware
06:40PM 33.9670 -118.2420 266° West 202 232 2,700 -720 Descending FlightAware
06:41PM 33.9630 -118.2750 262° West 197 227 2,300 -960 Descending FlightAware
06:41PM 33.9590 -118.3160 263° West 181 208 1,600 -900 Descending FlightAware
06:42PM 33.9560 -118.3420 262° West 157 181 1,300 -360 Descending FlightAware
06:42PM 33.9540 -118.3640 264° West 157 181 1,300 -840 Level FlightAware
06:43PM 33.9483 -118.4217 264° West 168 193 100 -1,140 Descending Los Angeles Center
06:45PM 33.9425 -118.4081 239° Southwest  Level Estimated